Date String (YYYY-MM-DD hh:mm:ss) UTC,Instrument flags,Ambient pressure (hPa),Sample flow (lpm),Bypass flow (lpm),Sample temperature (°C),Ambient temperature (°C),ASC tube jacket temperature (°C),LED temperature (°C),Box temperature (°C),Sample RH (%),Span deviation,Mass concentration (μg/m³),Mass concentration (μg/m³),Mass concentration (μg/m³)
DateTimeUTC,F1_M11,P_M11,Q1_M11,Q2_M11,T1_M11,T2_M11,T3_M11,T4_M11,T5_M11,U1_M11,ZSPAN_M11,X0_M11,X2_M11,X1_M11
2023-05-06 20:00:00,,0825.6,4.99,0.00,28.1,26.8,00.0,36.4,29.7,07.6,0000.0,0004.78,0002.57,0001.39
2023-05-06 20:01:00,,0825.6,5.01,0.00,28.2,26.8,00.0,36.4,29.7,07.6,0000.0,0005.64,0002.63,0001.41
2023-05-06 20:02:00,,0825.6,5.01,0.00,28.2,26.9,00.0,36.4,29.8,07.8,0000.0,0006.48,0002.67,0001.41
2023-05-06 20:03:00,,0825.6,5.01,0.00,28.2,26.9,00.0,36.4,29.8,07.9,0000.0,0006.44,0002.63,0001.41
2023-05-06 20:04:00,,0825.5,5.02,0.00,28.2,26.9,00.0,36.4,29.8,07.8,0000.0,0006.34,0002.59,0001.41
2023-05-06 20:05:00,,0825.4,4.99,0.00,28.2,26.9,00.0,36.5,29.8,07.7,0000.0,0006.42,0002.63,0001.42
2023-05-06 20:06:00,,0825.4,4.99,0.00,28.2,26.9,00.0,36.5,29.8,07.6,0000.0,0006.38,0002.61,0001.41
2023-05-06 20:07:00,,0825.3,5.01,0.00,28.2,26.9,00.0,36.5,29.8,07.6,0000.0,0006.55,0002.64,0001.41
2023-05-06 20:08:00,,0825.4,5.01,0.00,28.3,26.9,00.0,36.5,29.8,07.7,0000.0,0006.47,0002.62,0001.41
2023-05-06 20:09:00,,0825.4,5.01,0.00,28.3,26.9,00.0,36.5,29.8,07.7,0000.0,0006.36,0002.55,0001.40
2023-05-06 20:10:00,,0825.4,5.00,0.00,28.3,26.9,00.0,36.5,29.8,07.6,0000.0,0006.58,0002.61,0001.40
2023-05-06 20:11:00,,0825.2,5.00,0.00,28.3,27.0,00.0,36.5,29.9,07.8,0000.0,0006.61,0002.62,0001.40
2023-05-06 20:12:00,,0825.3,5.00,0.00,28.3,27.0,00.0,36.6,29.9,08.0,0000.0,0006.02,0002.50,0001.39
2023-05-06 20:13:00,,0825.2,5.00,0.00,28.3,27.0,00.0,36.6,29.9,07.8,0000.0,0004.86,0002.44,0001.39
2023-05-06 20:14:00,,0825.0,5.00,0.00,28.4,27.0,00.0,36.6,29.9,07.9,0000.0,0004.93,0002.47,0001.39
2023-05-06 20:15:00,,0825.1,5.00,0.00,28.4,27.0,00.0,36.6,29.9,07.5,0000.0,0004.92,0002.49,0001.39
2023-05-06 20:16:00,,0825.1,5.00,0.00,28.4,27.0,00.0,36.6,29.9,07.5,0000.0,0004.88,0002.46,0001.38
2023-05-06 20:17:00,,0825.1,5.00,0.00,28.4,27.0,00.0,36.6,29.9,07.7,0000.0,0004.93,0002.48,0001.38
2023-05-06 20:18:00,,0825.0,5.00,0.00,28.4,27.0,00.0,36.7,30.0,07.8,0000.0,0004.84,0002.46,0001.38
2023-05-06 20:19:00,,0825.0,5.00,0.00,28.4,27.0,00.0,36.7,30.0,08.5,0000.0,0004.83,0002.47,0001.39
2023-05-06 20:20:00,,0825.2,5.00,0.00,28.4,27.1,00.0,36.7,30.0,08.5,0000.0,0005.24,0002.51,0001.40
2023-05-06 20:21:00,,0825.1,5.00,0.00,28.4,27.1,00.0,36.7,30.0,08.1,0000.0,0005.75,0002.54,0001.42
2023-05-06 20:22:00,,0825.1,5.01,0.00,28.4,27.1,00.0,36.7,30.1,08.5,0000.0,0005.57,0002.48,0001.43
2023-05-06 20:23:00,,0825.2,5.00,0.00,28.4,27.1,00.0,36.7,30.0,08.4,0000.0,0005.78,0002.53,0001.44
2023-05-06 20:24:00,,0825.1,5.00,0.00,28.4,27.0,00.0,36.7,30.0,08.6,0000.0,0006.02,0002.61,0001.44
2023-05-06 20:25:00,,0825.1,5.00,0.00,28.4,27.0,00.0,36.7,30.0,08.8,0000.0,0006.09,0002.61,0001.45
2023-05-06 20:26:00,,0825.2,5.01,0.00,28.4,27.0,00.0,36.7,30.0,08.6,0000.0,0006.04,0002.59,0001.45
2023-05-06 20:27:00,,0825.3,5.01,0.00,28.4,27.0,00.0,36.7,30.0,08.7,0000.0,0006.05,0002.60,0001.46
2023-05-06 20:28:00,,0825.3,4.99,0.00,28.4,26.9,00.0,36.7,30.0,08.9,0000.0,0006.27,0002.63,0001.47
2023-05-06 20:29:00,,0825.2,5.01,0.00,28.4,26.9,00.0,36.7,30.0,08.7,0000.0,0006.31,0002.66,0001.49
2023-05-06 20:30:00,,0825.3,4.99,0.00,28.4,26.9,00.0,36.7,29.9,08.6,0000.0,0006.44,0002.71,0001.49
2023-05-06 20:31:00,,0825.3,5.00,0.00,28.4,26.9,00.0,36.7,29.9,08.8,0000.0,0006.08,0002.71,0001.48
2023-05-06 20:32:00,,0825.3,4.99,0.00,28.4,26.9,00.0,36.7,30.0,08.7,0000.0,0005.45,0002.68,0001.47
2023-05-06 20:33:00,,0825.3,5.00,0.00,28.4,26.8,00.0,36.7,29.9,08.6,0000.0,0005.66,0002.75,0001.47
2023-05-06 20:34:00,,0825.3,5.01,0.00,28.4,26.8,00.0,36.7,29.9,08.6,0000.0,0007.09,0002.73,0001.47
2023-05-06 20:35:00,,0825.2,5.01,0.00,28.4,26.9,00.0,36.7,29.9,08.2,0000.0,0007.35,0002.79,0001.50
2023-05-06 20:36:00,,0825.3,4.99,0.00,28.4,26.9,00.0,36.7,30.0,08.6,0000.0,0007.34,0002.80,0001.50
2023-05-06 20:37:00,,0825.3,4.99,0.00,28.4,26.9,00.0,36.7,30.0,09.0,0000.0,0007.43,0002.85,0001.50
2023-05-06 20:38:00,,0825.3,4.99,0.00,28.4,26.9,00.0,36.7,30.0,08.6,0000.0,0007.77,0002.85,0001.51
2023-05-06 20:39:00,,0825.3,5.01,0.00,28.4,26.9,00.0,36.7,30.0,08.9,0000.0,0007.61,0002.81,0001.51
2023-05-06 20:40:00,,0825.3,5.02,0.00,28.4,26.9,00.0,36.7,30.0,08.7,0000.0,0007.62,0002.80,0001.52
2023-05-06 20:41:00,,0825.3,5.00,0.00,28.4,26.9,00.0,36.7,30.0,08.5,0000.0,0007.64,0002.75,0001.51
2023-05-06 20:42:00,,0825.3,5.00,0.00,28.4,26.9,00.0,36.7,30.0,08.4,0000.0,0007.75,0002.77,0001.53
2023-05-06 20:43:00,,0825.3,4.99,0.00,28.4,26.9,00.0,36.7,30.0,08.5,0000.0,0007.90,0002.83,0001.56
2023-05-06 20:44:00,,0825.3,5.00,0.00,28.4,26.9,00.0,36.7,30.0,08.4,0000.0,0007.98,0002.87,0001.57
2023-05-06 20:45:00,,0825.3,5.00,0.00,28.4,26.9,00.0,36.7,29.9,08.3,0000.0,0007.03,0002.82,0001.56
2023-05-06 20:46:00,,0825.3,5.00,0.00,28.4,26.9,00.0,36.7,29.9,08.4,0000.0,0006.45,0002.73,0001.56
2023-05-06 20:47:00,,0825.3,5.01,0.00,28.4,26.9,00.0,36.8,30.0,08.5,0000.0,0006.48,0002.73,0001.57
2023-05-06 20:48:00,,0825.4,4.99,0.00,28.4,26.9,00.0,36.8,30.0,08.5,0000.0,0006.40,0002.72,0001.59
2023-05-06 20:49:00,,0825.3,5.00,0.00,28.4,26.9,00.0,36.8,30.0,08.1,0000.0,0005.84,0002.71,0001.59
2023-05-06 20:50:00,,0825.4,5.00,0.00,28.4,26.9,00.0,36.8,30.0,08.1,0000.0,0005.81,0002.74,0001.58
2023-05-06 20:51:00,,0825.4,5.01,0.00,28.4,26.9,00.0,36.8,29.9,08.2,0000.0,0006.02,0002.81,0001.59
2023-05-06 20:52:00,,0825.4,5.00,0.00,28.4,26.9,00.0,36.8,30.0,08.3,0000.0,0005.99,0002.85,0001.61
2023-05-06 20:53:00,,0825.4,5.00,0.00,28.4,26.9,00.0,36.8,30.0,08.4,0000.0,0005.83,0002.84,0001.61
2023-05-06 20:54:00,,0825.4,5.00,0.00,28.4,27.0,00.0,36.8,30.0,08.3,0000.0,0005.74,0002.84,0001.61
2023-05-06 20:55:00,,0825.4,5.00,0.00,28.4,27.0,00.0,36.8,30.0,08.3,0000.0,0005.40,0002.75,0001.60
2023-05-06 20:56:00,,0825.4,5.00,0.00,28.4,27.1,00.0,36.8,30.1,08.6,0000.0,0005.46,0002.78,0001.62
2023-05-06 20:57:00,,0825.4,5.00,0.00,28.5,27.1,00.0,36.8,30.1,08.5,0000.0,0005.62,0002.83,0001.63
2023-05-06 20:58:00,,0825.4,5.00,0.00,28.5,27.1,00.0,36.8,30.1,08.5,0000.0,0006.07,0002.82,0001.63
2023-05-06 20:59:00,,0825.4,5.00,0.00,28.5,27.1,00.0,36.8,30.1,08.4,0000.0,0006.03,0002.81,0001.62
